TimeCDT,TemperatureF,Dew PointF,Humidity,Sea Level PressureIn,VisibilityMPH,Wind Direction,Wind SpeedMPH,Gust SpeedMPH,PrecipitationIn,Events,Conditions,WindDirDegrees,DateUTC
12:00 AM,-13.0,-18.4,77,29.89,9.0,NNW,19.6,-,N/A,,Clear,340,2013-04-24 05:00:00
1:00 AM,-14.8,-18.4,84,29.88,9.0,NNW,19.6,-,N/A,,Clear,340,2013-04-24 06:00:00
2:00 AM,-16.6,-22.0,76,29.88,9.0,NNW,16.1,-,N/A,,Clear,340,2013-04-24 07:00:00
3:00 AM,-16.6,-22.0,76,29.86,9.0,NNW,20.7,-,N/A,,Clear,340,2013-04-24 08:00:00
4:00 AM,-16.6,-20.2,84,29.85,9.0,NNW,21.9,-,N/A,,Clear,340,2013-04-24 09:00:00
5:00 AM,-16.6,-20.2,84,29.84,9.0,NNW,18.4,-,N/A,,Clear,340,2013-04-24 10:00:00
6:00 AM,-16.6,-20.2,84,29.84,9.0,NNW,12.7,-,N/A,,Clear,330,2013-04-24 11:00:00
7:00 AM,-20.2,-23.8,83,29.83,12.0,NW,5.8,-,N/A,,Ice Crystals,320,2013-04-24 12:00:00
8:00 AM,-16.6,-22.0,76,29.82,12.0,West,10.4,-,N/A,,Ice Crystals,260,2013-04-24 13:00:00
9:00 AM,-16.6,-22.0,76,29.80,15.0,West,5.8,-,N/A,,Ice Crystals,280,2013-04-24 14:00:00
10:00 AM,-14.8,-20.2,77,29.79,2.0,WSW,9.2,-,N/A,,Haze,250,2013-04-24 15:00:00
10:01 AM,-14.8,-20.2,77,29.79,2.5,WSW,9.2,-,N/A,,Haze,250,2013-04-24 15:01:00
10:02 AM,-14.8,-18.4,84,29.79,3.0,WSW,9.2,-,N/A,,Haze,250,2013-04-24 15:02:00
10:27 AM,-13.0,-18.4,77,29.78,6.0,WSW,5.8,-,N/A,,Haze,250,2013-04-24 15:27:00
11:00 AM,-11.2,-16.6,77,29.78,5.0,WSW,9.2,-,N/A,,Haze,250,2013-04-24 16:00:00
11:16 AM,-11.2,-16.6,77,29.77,6.0,WSW,9.2,-,N/A,,Haze,250,2013-04-24 16:16:00
11:25 AM,-11.2,-14.8,84,29.77,5.0,WSW,10.4,-,N/A,,Haze,250,2013-04-24 16:25:00
11:32 AM,-11.2,-14.8,84,29.77,6.0,WSW,10.4,-,N/A,,Haze,250,2013-04-24 16:32:00
11:43 AM,-9.4,-14.8,77,29.77,5.0,WSW,10.4,-,N/A,,Haze,250,2013-04-24 16:43:00
11:51 AM,-9.4,-14.8,77,29.76,2.5,WSW,10.4,-,N/A,,Haze,250,2013-04-24 16:51:00
11:55 AM,-9.4,-13.0,84,29.76,1.8,WSW,9.2,-,N/A,,Haze,250,2013-04-24 16:55:00
12:00 PM,-9.4,-14.8,77,29.76,2.0,WSW,10.4,-,N/A,,Haze,250,2013-04-24 17:00:00
12:04 PM,-9.4,-13.0,84,29.76,2.5,WSW,10.4,-,N/A,,Haze,250,2013-04-24 17:04:00
12:05 PM,-9.4,-13.0,84,29.76,3.0,WSW,10.4,-,N/A,,Haze,250,2013-04-24 17:05:00
12:09 PM,-9.4,-13.0,84,29.76,2.5,WSW,11.5,-,N/A,,Haze,250,2013-04-24 17:09:00
12:16 PM,-9.4,-13.0,84,29.76,2.2,WSW,10.4,-,N/A,,Haze,250,2013-04-24 17:16:00
12:21 PM,-9.4,-13.0,84,29.76,2.5,WSW,10.4,-,N/A,,Haze,250,2013-04-24 17:21:00
12:26 PM,-9.4,-13.0,84,29.76,3.0,West,11.5,-,N/A,,Haze,260,2013-04-24 17:26:00
12:53 PM,-9.4,-13.0,84,29.75,6.0,SW,9.2,-,N/A,,Haze,230,2013-04-24 17:53:00
12:58 PM,-9.4,-13.0,84,29.76,5.0,SW,9.2,-,N/A,,Haze,220,2013-04-24 17:58:00
1:00 PM,-9.4,-13.0,84,29.75,5.0,WSW,10.4,-,N/A,,Haze,240,2013-04-24 18:00:00
1:04 PM,-9.4,-13.0,84,29.75,6.0,SSW,9.2,-,N/A,,Haze,210,2013-04-24 18:04:00
2:00 PM,-7.6,-11.2,84,29.75,9.0,SW,10.4,-,N/A,,Clear,220,2013-04-24 19:00:00
3:00 PM,-7.6,-11.2,84,29.73,8.0,SSW,6.9,-,N/A,,Clear,210,2013-04-24 20:00:00
3:05 PM,-7.6,-11.2,84,29.73,8.0,SSW,6.9,-,N/A,Snow,Light Snow,210,2013-04-24 20:05:00
3:14 PM,-7.6,-11.2,84,29.73,9.0,SW,10.4,-,N/A,,Clear,220,2013-04-24 20:14:00
3:52 PM,-5.8,-11.2,77,29.73,8.0,SSW,9.2,-,N/A,Snow,Light Snow,210,2013-04-24 20:52:00
4:00 PM,-5.8,-11.2,77,29.73,9.0,SW,11.5,-,N/A,Snow,Light Snow,220,2013-04-24 21:00:00
4:25 PM,-5.8,-11.2,77,29.73,9.0,SSW,10.4,-,N/A,,Clear,210,2013-04-24 21:25:00
5:27 PM,-5.8,-11.2,77,29.72,8.0,SSW,6.9,-,N/A,Snow,Light Snow,210,2013-04-24 22:27:00
5:38 PM,-5.8,-11.2,77,29.72,9.0,South,4.6,-,N/A,,Clear,190,2013-04-24 22:38:00
6:00 PM,-7.6,-11.2,84,29.72,9.0,South,4.6,-,N/A,,Clear,190,2013-04-24 23:00:00
7:00 PM,-7.6,-11.2,84,29.71,9.0,SSE,5.8,-,N/A,,Clear,160,2013-04-25 00:00:00
8:00 PM,-9.4,-14.8,77,29.70,9.0,SE,8.1,-,N/A,,Clear,140,2013-04-25 01:00:00
10:00 PM,-13.0,-18.4,77,29.71,9.0,ESE,8.1,-,N/A,,Clear,120,2013-04-25 03:00:00
11:00 PM,-13.0,-18.4,77,29.70,9.0,ESE,8.1,-,N/A,,Clear,110,2013-04-25 04:00:00